Location: Newark
(54.0500°N, 12.8333°E)
Time: 01:05:52
(UTC+00:00)

A-11 Canister half - Visible Passes

Search period start: 28 January 2020 00:00
Search period end: 07 February 2020 00:00
Orbit: 1525 x 1684 km, 47.3° (Epoch: 27 January)

Date Brightness Start Highest point End Pass type
(mag) Time Alt. Az. Time Alt. Az. Time Alt. Az.
28 Jan 9.4 17:17:29 10° SW 17:26:25 52° SSE 17:33:08 20° E visible
28 Jan 9.1 19:21:26 10° W 19:30:35 57° S 19:31:25 56° SSE visible
28 Jan 10.5 21:25:59 10° W 21:29:44 24° WSW 21:29:44 24° WSW visible
29 Jan 9.4 16:55:56 10° SW 17:04:50 51° SSE 17:12:44 15° E visible
29 Jan 9.2 18:59:50 10° W 19:08:58 58° S 19:11:02 49° SE visible
29 Jan 10.2 21:04:21 10° W 21:09:20 30° WSW 21:09:20 30° WSW visible
30 Jan 9.5 16:34:23 10° SW 16:43:14 50° SSE 16:52:19 10° E visible
30 Jan 9.2 18:38:15 10° W 18:47:22 58° S 18:50:39 41° SE visible
30 Jan 9.9 20:42:44 10° W 20:48:57 35° WSW 20:48:57 35° WSW visible
31 Jan 9.6 16:12:50 10° SW 16:21:39 49° SSE 16:30:40 10° E visible
31 Jan 9.2 18:16:39 10° W 18:25:46 58° S 18:30:17 33° ESE visible
31 Jan 9.7 20:21:07 10° W 20:28:35 40° SW 20:28:35 40° SW visible
01 Feb 9.3 17:55:03 10° W 18:04:09 58° S 18:09:56 26° ESE visible
01 Feb 9.6 19:59:30 10° W 20:08:09 42° SSW 20:08:15 42° SSW visible
01 Feb 11.0 22:05:18 10° W 22:06:34 13° W 22:06:34 13° W visible
02 Feb 9.3 17:33:28 10° WSW 17:42:32 59° S 17:49:37 19° ESE visible
02 Feb 9.5 19:37:53 10° W 19:46:33 43° SSW 19:47:56 41° S visible
02 Feb 10.8 21:43:33 10° W 21:46:14 16° WSW 21:46:14 16° WSW visible
03 Feb 9.4 17:11:52 10° WSW 17:20:57 59° S 17:29:21 13° ESE visible
03 Feb 9.6 19:16:16 10° W 19:24:58 44° SSW 19:27:39 37° S visible
03 Feb 10.7 21:21:49 10° W 21:25:58 19° WSW 21:25:58 19° WSW visible
04 Feb 9.4 16:50:17 10° WSW 16:59:20 59° S 17:08:37 10° ESE visible
04 Feb 9.6 18:54:39 10° W 19:03:23 45° SSW 19:07:25 31° SSE visible
04 Feb 10.5 21:00:05 10° W 21:05:44 21° SW 21:05:44 21° SW visible
05 Feb 9.5 16:28:41 10° WSW 16:37:44 59° S 16:46:59 10° ESE visible
05 Feb 9.6 18:33:02 10° W 18:41:48 46° SSW 18:47:14 24° SE visible
05 Feb 10.4 20:38:22 10° W 20:45:02 22° SW 20:45:33 22° SW visible
06 Feb 9.7 18:11:26 10° W 18:20:12 47° SSW 18:27:07 18° SE visible
06 Feb 10.4 20:16:40 10° W 20:23:29 23° SW 20:25:27 21° SSW visible
